[[{"header":{"parameterUnit":"m.s-1","parameterCategory":1,"la1":30.2991,"la2":30.254,"lo1":-89.0895,"lo2":-89.0444,"dy":0.0017,"dx":0.0017,"nx":28,"ny":28,"refTime":"2024-12-25T09:00:00:Z","depth":0,"parameterNumber":2,"parameterNumberName":"U-component_of_WINDS"},"data":[0,0,0,0,0,0,0,0,0,0,0,0,0,0,0,0,0,0,0,0,0,0,0,0,0,0,0,0,0,0,0,0,0,0,0,0,0,0,0,0,0,0,0,0,0,0,0,0,0,0,0,0,0,0,0,0,0,0,-5.8529,-5.853,0,-5.8551,-5.8551,-5.8552,-5.8463,-5.846,-5.8457,-5.8455,-5.8478,-5.8481,-5.8484,0,0,0,0,0,0,0,0,0,0,0,0,0,-5.8413,-5.8415,-5.8529,-5.853,-5.853,-5.8551,-5.8551,-5.8552,-5.8463,-5.846,-5.8457,-5.8454,-5.8477,-5.8481,-5.8484,0,0,0,0,0,0,0,0,0,0,0,0,0,-5.8452,-5.8416,-5.8529,-5.8488,-5.8485,-5.8551,-5.8551,-5.8552,-5.8464,-5.846,-5.8456,-5.8452,-5.8476,-5.848,-5.8485,-5.8592,0,0,-5.8499,-5.8501,0,0,0,0,0,0,0,0,-5.845,-5.8456,-5.8494,-5.8491,-5.8487,-5.85,-5.8519,-5.8565,-5.8465,-5.8472,-5.8455,-5.845,-5.8489,-5.8492,-5.8505,-5.8593,-5.8594,-5.8499,-5.8502,-5.8504,-5.8505,0,0,0,0,0,0,0,-5.8447,-5.8455,-5.8538,-5.8495,-5.8491,-5.8469,-5.847,-5.8527,-5.8502,-5.8471,-5.8464,-5.8468,-5.8486,-5.85,-5.8505,-5.8594,-5.8499,-5.8503,-5.8506,-5.8508,-5.8773,-5.8777,0,0,0,0,0,0,-5.845,-5.8453,-5.8537,-5.8539,-5.8458,-5.8475,-5.8476,-5.85,-5.8501,-5.8497,-5.8472,-5.8464,-5.8495,-5.8499,-5.8505,-5.863,-5.8504,-5.8508,-5.8511,-5.8769,-5.8774,-5.8779,0,0,0,0,0,0,-5.8447,-5.8458,-5.8536,-5.8494,-5.8502,-5.8481,-5.8509,-5.8503,-5.8517,-5.8502,-5.8497,-5.8491,-5.8492,-5.8499,-5.8571,-5.863,-5.851,-5.8515,-5.8764,-5.877,-5.8776,-5.8882,0,0,0,0,0,0,-5.8444,-5.8458,-5.8497,-5.8496,-5.8505,-5.8602,-5.8512,-5.8506,-5.8525,-5.8515,-5.8518,-5.8515,-5.8489,-5.8565,-5.8576,-5.8634,-5.8518,-5.8758,-5.8767,-5.8774,-5.8873,-5.8892,-5.8907,0,0,0,0,0,-5.8441,-5.8526,-5.85,-5.8511,-5.8554,-5.8605,-5.8611,-5.8579,-5.853,-5.857,-5.8561,-5.8515,-5.8623,-5.8573,-5.8585,-5.8645,-5.8754,-5.8764,-5.8774,-5.8866,-5.8888,-5.8907,0,0,0,0,0,0,-5.8535,-5.8525,-5.8496,-5.8583,-5.8596,-5.859,-5.8639,-5.8603,-5.8629,-5.8619,-5.8579,-5.8581,-5.866,-5.866,-5.8605,-5.875,-5.868,-5.8693,-5.8746,-5.8767,-5.8784,-5.8781,-5.8522,0,0,0,0,0,-5.8566,-5.8608,-5.8597,-5.8676,-5.8684,-5.8661,-5.8682,-5.8657,-5.8668,-5.8673,-5.8668,-5.8682,-5.8718,-5.8743,-5.8776,-5.8874,-5.8874,-5.8922,-5.8939,-5.8953,-5.8963,-5.9016,-5.9037,-5.881,-5.881,-5.881,0,0,-5.8631,-5.8631,-5.8659,-5.8695,-5.8701,-5.8746,-5.8666,-5.8716,-5.8749,-5.868,-5.8748,-5.8746,-5.8758,-5.8845,-5.8882,-5.8847,-5.9026,-5.8965,-5.8976,-5.8979,-5.9028,-5.9049,-5.9068,-5.8817,-5.8816,-5.8815,0,0,-5.877,-5.8775,-5.884,-5.8849,-5.8861,-5.8846,-5.8862,-5.8862,-5.8858,-5.8926,-5.8876,-5.8915,-5.8979,-5.899,-5.9004,-5.9151,-5.911,-5.9164,-5.925,-5.9302,-5.932,-5.9335,-5.9387,-5.9407,-5.9175,-5.9175,-5.9175,0,-5.8848,-5.8913,-5.8879,-5.8933,-5.8951,-5.8892,-5.8958,-5.8969,-5.8991,-5.9005,-5.8965,-5.9045,-5.9049,-5.9137,-5.9173,-5.9187,-5.9204,-5.9161,-5.932,-5.9335,-5.9349,-5.9399,-5.9418,-5.9181,-5.918,-5.918,-5.9179,0,-5.9009,-5.9055,-5.9107,-5.913,-5.9153,-5.9214,-5.919,-5.9218,-5.9192,-5.9181,-5.9252,-5.9256,-5.9288,-5.9308,-5.9283,-5.9393,-5.9371,-5.9327,-5.9255,-5.9378,-5.9423,-5.9442,-5.919,-5.9188,-5.9186,-5.9184,0,0,-5.9205,-5.921,-5.923,-5.924,-5.925,-5.9285,-5.9344,-5.9376,-5.9401,-5.9419,-5.9467,-5.9525,-5.9484,-5.95,-5.9476,-5.9522,-5.9638,-5.9472,-5.9472,-5.9502,-5.976,-5.9792,-5.9814,-5.9613,-5.9616,-5.9619,-5.9759,0,-5.9341,-5.944,-5.9412,-5.9512,-5.9554,-5.9501,-5.9552,-5.9564,-5.9557,-5.9593,-5.9585,-5.9626,-5.957,-5.9579,-5.9622,-5.9615,-5.9689,-5.9605,-5.9657,-5.9659,-5.9653,-5.9838,-5.9871,-6.0003,-5.9777,-5.978,-5.9782,0,-5.9511,-5.9537,-5.9641,-5.9645,-5.9662,-5.9708,-5.9736,-5.9771,-5.9785,-5.9776,-5.9796,-5.9764,-5.9822,-5.9753,-5.9834,-5.9777,-5.9797,-5.9798,-5.9802,-5.9804,-5.9726,-5.9843,-6.0044,-6.0063,-5.981,-5.9807,-5.9805,0,-5.9642,-5.9703,-5.9773,-5.9784,-5.9791,-5.9825,-5.9829,-5.9839,-5.9861,-5.9887,-5.99,-5.9933,-5.995,-5.9977,-5.9954,-5.9906,-6.0039,-5.9967,-6.0033,-6.0034,-6.0061,-6.0059,-6.0266,-6.0078,-6.0078,-6.0077,-6.0077,0,-5.9796,-5.9861,-5.9832,-5.9875,-5.9947,-5.9916,-5.9989,-5.9988,-5.9998,-6.004,-5.9997,-6.0038,-6.0006,-6.0045,-6.0028,-6.0098,-6.0106,-6.0101,-6.0096,-6.0104,-6.0104,-6.0115,-6.0104,-6.0082,-6.0081,-6.008,-6.0079,0,-5.9952,-5.9936,-6.0009,-6.001,-6.0013,-6.0066,-6.0067,-6.0108,-6.0099,-6.0153,-6.0164,-6.015,-6.0193,-6.0174,-6.022,-6.0209,-6.0298,-6.0281,-6.0293,-6.0288,-6.0354,-6.0348,-6.0573,-6.0601,-6.0397,-6.0399,-6.04,0,-6.005,-6.0099,-6.0107,-6.0132,-6.014,-6.0181,-6.0204,-6.0177,-6.0202,-6.0223,-6.0261,-6.0301,-6.0331,-6.0403,-6.0397,-6.0433,-6.0415,-6.0492,-6.042,-6.0427,-6.0415,-6.0411,-6.0416,-6.0506,-6.0508,-6.051,-6.0512,0,-6.0224,-6.0215,-6.0248,-6.0281,-6.0309,-6.0333,-6.0353,-6.0376,-6.035,-6.0382,-6.0425,-6.0449,-6.0497,-6.0537,-6.0569,-6.0574,-6.0539,-6.0535,-6.0552,-6.0559,-6.0563,-6.0561,-6.033,-6.0529,-6.0527,-6.0526,-6.0525,-6.0524,-6.0353,-6.0395,-6.0407,-6.0447,-6.046,-6.048,-6.0518,-6.0515,-6.0551,-6.0587,-6.057,-6.0622,-6.0636,-6.0675,-6.0686,-6.0726,-6.0696,-6.0721,-6.0727,-6.0733,-6.0741,-6.056,-6.0732,-6.0732,-6.0731,-6.0731,-6.0731,0,-6.0524,-6.053,-6.0567,-6.0598,-6.063,-6.0595,-6.0617,-6.0645,-6.0691,-6.0708,-6.0739,-6.0791,-6.083,-6.0829,-6.0866,-6.0899,-6.0884,-6.0909,-6.0905,-6.0907,-6.0766,-6.0747,-6.0921,-6.0921,-6.0921,-6.0921,-6.0921,-6.0921,-6.0616,-6.0685,-6.0677,-6.0752,-6.0758,-6.0808,-6.0823,-6.0842,-6.0856,-6.0915,-6.0948,-6.0947,-6.0957,-6.0995,-6.103,-6.1029,-6.1044,-6.1075,-6.1068,-6.0936,-6.0917,-6.0899,-6.0881,-6.1079,-6.108,-6.1205,-6.1206,-6.1207]},{"header":{"parameterUnit":"m.s-1","parameterCategory":1,"la1":30.2991,"la2":30.254,"lo1":-89.0895,"lo2":-89.0444,"dy":0.0017,"dx":0.0017,"nx":28,"ny":28,"refTime":"2024-12-25T09:00:00:Z","depth":0,"parameterNumber":3,"parameterNumberName":"V-component_of_WINDS"},"data":[0,0,0,0,0,0,0,0,0,0,0,0,0,0,0,0,0,0,0,0,0,0,0,0,0,0,0,0,0,0,0,0,0,0,0,0,0,0,0,0,0,0,0,0,0,0,0,0,0,0,0,0,0,0,0,0,0,0,0.9189,0.919,0,0.9259,0.9259,0.926,0.9261,0.926,0.9259,0.9258,0.9332,0.9335,0.9337,0,0,0,0,0,0,0,0,0,0,0,0,0,0.9062,0.9064,0.9189,0.919,0.9191,0.9258,0.9259,0.926,0.9261,0.926,0.9259,0.9258,0.9331,0.9334,0.9338,0,0,0,0,0,0,0,0,0,0,0,0,0,0.9123,0.9065,0.9189,0.9199,0.9201,0.9258,0.9259,0.9261,0.9261,0.926,0.9259,0.9257,0.933,0.9334,0.9338,0.9391,0,0,0.9351,0.9353,0,0,0,0,0,0,0,0,0.9119,0.9127,0.9197,0.9199,0.9201,0.925,0.9242,0.9304,0.9262,0.9238,0.9258,0.9257,0.9306,0.9312,0.9328,0.9394,0.9397,0.9351,0.9354,0.9356,0.9357,0,0,0,0,0,0,0,0.9115,0.9125,0.9217,0.9198,0.92,0.9202,0.9209,0.9253,0.9279,0.924,0.9241,0.9249,0.9307,0.9324,0.933,0.9398,0.9351,0.9355,0.9357,0.9359,0.9516,0.9517,0,0,0,0,0,0,0.9108,0.9121,0.9214,0.9219,0.9156,0.9205,0.9213,0.9235,0.9278,0.9284,0.925,0.9248,0.9317,0.9325,0.9332,0.94,0.9356,0.9359,0.9362,0.9514,0.9516,0.9518,0,0,0,0,0,0,0.9106,0.9117,0.9212,0.917,0.9182,0.9209,0.9234,0.9237,0.9255,0.9285,0.929,0.9262,0.9317,0.9326,0.9377,0.9402,0.9361,0.9365,0.9512,0.9515,0.9517,0.9533,0,0,0,0,0,0,0.9102,0.9116,0.9134,0.917,0.9184,0.9254,0.9235,0.924,0.9262,0.9261,0.9299,0.9304,0.9316,0.9371,0.9381,0.9407,0.9368,0.951,0.9513,0.9516,0.9531,0.9536,0.954,0,0,0,0,0,0.9097,0.9136,0.9135,0.9147,0.9208,0.9255,0.9263,0.9276,0.9263,0.9284,0.9304,0.9302,0.9397,0.9376,0.9388,0.9415,0.9509,0.9512,0.9516,0.9528,0.9535,0.954,0,0,0,0,0,0,0.9102,0.9141,0.9141,0.9191,0.922,0.9255,0.9281,0.9282,0.9316,0.9313,0.9329,0.9338,0.9389,0.9407,0.9382,0.9471,0.9452,0.9458,0.9457,0.9464,0.9468,0.9464,0.9372,0,0,0,0,0,0.9109,0.9143,0.9175,0.9217,0.9231,0.9254,0.9274,0.9282,0.9313,0.9325,0.9349,0.938,0.9417,0.9441,0.9476,0.9533,0.9543,0.9558,0.9563,0.9567,0.9573,0.9608,0.9616,0.953,0.953,0.953,0,0,0.9124,0.9149,0.9169,0.9219,0.9242,0.9278,0.9264,0.9302,0.933,0.9331,0.9381,0.94,0.9435,0.949,0.9515,0.9507,0.9599,0.9572,0.9575,0.9578,0.9613,0.9621,0.9628,0.9533,0.9532,0.9532,0,0,0.917,0.9191,0.923,0.9254,0.929,0.9305,0.9314,0.935,0.9363,0.9413,0.9415,0.945,0.9512,0.9538,0.956,0.962,0.9621,0.9631,0.9658,0.9692,0.9698,0.9705,0.9729,0.9737,0.9636,0.9636,0.9636,0,0.9185,0.9238,0.925,0.929,0.9313,0.9316,0.9357,0.938,0.9425,0.9442,0.9431,0.9513,0.9536,0.9599,0.9614,0.9631,0.9644,0.9627,0.9696,0.9703,0.9708,0.9732,0.9741,0.9638,0.9637,0.9637,0.9637,0,0.9256,0.9293,0.9321,0.9365,0.9391,0.9431,0.9452,0.9477,0.9483,0.95,0.9554,0.9583,0.9626,0.9641,0.9647,0.9706,0.97,0.9693,0.9674,0.9718,0.974,0.9749,0.9639,0.9639,0.9638,0.9638,0,0,0.9306,0.9359,0.9369,0.9391,0.9431,0.9461,0.9503,0.9545,0.9568,0.96,0.9637,0.9691,0.9686,0.9711,0.972,0.9749,0.98,0.9739,0.974,0.9752,0.9871,0.9878,0.9888,0.98,0.9801,0.9803,0.9869,0,0.9359,0.9432,0.9446,0.9511,0.9548,0.9552,0.9589,0.9619,0.9637,0.9672,0.9692,0.9731,0.9719,0.9735,0.9764,0.9787,0.9824,0.9782,0.9837,0.9839,0.9831,0.9899,0.9906,0.9967,0.9877,0.9879,0.988,0,0.943,0.9465,0.9533,0.9572,0.9588,0.962,0.9662,0.9695,0.973,0.9742,0.9771,0.9777,0.9824,0.9802,0.9868,0.9839,0.9863,0.9878,0.988,0.9888,0.9864,0.9911,0.9986,0.9996,0.9893,0.9892,0.9891,0,0.9464,0.9527,0.9578,0.9596,0.9641,0.9665,0.9685,0.9719,0.9745,0.9782,0.9799,0.9841,0.9864,0.9897,0.9916,0.9898,0.9982,0.9961,0.9995,0.9995,1.0014,1.0013,1.0096,1.0025,1.0025,1.0024,1.0024,0,0.9523,0.9565,0.9594,0.9625,0.9674,0.969,0.9739,0.9759,0.979,0.9827,0.9833,0.9868,0.9889,0.9928,0.9943,0.9998,1.0007,1.002,1.0024,1.0021,1.0019,1.0038,1.0035,1.0027,1.0026,1.0026,1.0025,0,0.957,0.959,0.9646,0.9685,0.9696,0.9731,0.9765,0.9797,0.9815,0.9862,0.9874,0.9903,0.995,0.9972,1.0028,1.0039,1.0102,1.0101,1.009,1.0092,1.0126,1.0124,1.0226,1.0242,1.0157,1.0158,1.0158,0,0.9607,0.964,0.9683,0.9708,0.973,0.9769,0.9796,0.9814,0.9842,0.9887,0.9914,0.9961,0.9999,1.0073,1.0101,1.0145,1.0148,1.0181,1.0155,1.0152,1.0153,1.0152,1.0157,1.0186,1.0187,1.0188,1.0188,0,0.9672,0.9681,0.9719,0.9762,0.9793,0.9828,0.9861,0.9882,0.9906,0.9938,0.9985,1.0015,1.0074,1.0122,1.0169,1.0191,1.0196,1.0196,1.0207,1.0206,1.0199,1.0206,1.0106,1.0194,1.0194,1.0193,1.0193,1.0193,0.9718,0.9749,0.9785,0.9828,0.9855,0.9888,0.9921,0.9944,0.9983,1.0033,1.0041,1.0093,1.0131,1.0195,1.0219,1.0262,1.0254,1.0269,1.0273,1.0277,1.0281,1.019,1.027,1.027,1.0269,1.0269,1.0269,0,0.9786,0.981,0.9849,0.9897,0.9932,0.9931,0.997,0.9999,1.0044,1.0079,1.0117,1.0174,1.022,1.0252,1.03,1.0328,1.0332,1.0341,1.034,1.0346,1.0283,1.027,1.0337,1.0337,1.0337,1.0337,1.0337,1.0337,0.9826,0.988,0.9894,0.9962,0.9986,1.0037,1.0059,1.009,1.0119,1.0181,1.022,1.024,1.0275,1.0326,1.037,1.0379,1.0398,1.0407,1.0416,1.0357,1.035,1.0343,1.0332,1.0411,1.0411,1.0476,1.0477,1.0477]}]]